TimeCDT,TemperatureF,Dew PointF,Humidity,Sea Level PressureIn,VisibilityMPH,Wind Direction,Wind SpeedMPH,Gust SpeedMPH,PrecipitationIn,Events,Conditions,WindDirDegrees,DateUTC
12:15 AM,79.2,64.0,60,29.84,10.0,South,12.7,18.4,N/A,,Scattered Clouds,190,2013-07-07 05:15:00
12:35 AM,79.3,63.9,59,29.84,10.0,South,10.4,18.4,N/A,,Scattered Clouds,190,2013-07-07 05:35:00
12:55 AM,79.2,63.7,59,29.83,10.0,South,10.4,18.4,N/A,,Scattered Clouds,190,2013-07-07 05:55:00
1:15 AM,79.2,63.7,59,29.83,10.0,SSW,11.5,18.4,N/A,,Clear,200,2013-07-07 06:15:00
1:35 AM,79.0,63.5,59,29.84,10.0,South,8.1,-,N/A,,Clear,190,2013-07-07 06:35:00
1:55 AM,78.8,63.5,59,29.83,10.0,SSW,9.2,-,N/A,,Clear,200,2013-07-07 06:55:00
2:15 AM,78.8,63.5,59,29.84,10.0,SSW,11.5,18.4,N/A,,Scattered Clouds,200,2013-07-07 07:15:00
2:35 AM,78.8,63.5,59,29.84,10.0,SSW,11.5,18.4,N/A,,Mostly Cloudy,210,2013-07-07 07:35:00
2:55 AM,78.6,63.5,60,29.84,10.0,SSW,10.4,-,N/A,,Mostly Cloudy,200,2013-07-07 07:55:00
3:15 AM,78.4,63.5,60,29.85,10.0,South,8.1,-,N/A,,Overcast,190,2013-07-07 08:15:00
3:35 AM,78.1,63.5,61,29.85,10.0,SSW,8.1,-,N/A,,Overcast,200,2013-07-07 08:35:00
3:55 AM,78.1,63.5,61,29.84,10.0,South,8.1,-,N/A,,Overcast,190,2013-07-07 08:55:00
4:15 AM,77.9,63.7,61,29.85,10.0,SSW,5.8,-,N/A,,Overcast,200,2013-07-07 09:15:00
4:35 AM,77.5,63.7,62,29.85,10.0,South,8.1,-,N/A,,Overcast,190,2013-07-07 09:35:00
4:55 AM,77.4,63.7,63,29.84,10.0,South,5.8,-,N/A,,Mostly Cloudy,190,2013-07-07 09:55:00
5:15 AM,76.1,63.9,66,29.84,10.0,South,6.9,-,N/A,,Scattered Clouds,190,2013-07-07 10:15:00
5:35 AM,75.4,63.9,67,29.85,10.0,South,5.8,-,N/A,,Scattered Clouds,190,2013-07-07 10:35:00
5:55 AM,74.7,64.4,70,29.85,10.0,South,5.8,-,N/A,,Scattered Clouds,180,2013-07-07 10:55:00
6:15 AM,74.7,64.4,70,29.85,10.0,South,5.8,-,N/A,,Mostly Cloudy,180,2013-07-07 11:15:00
6:35 AM,75.2,64.8,70,29.85,10.0,South,4.6,-,N/A,,Scattered Clouds,180,2013-07-07 11:35:00
6:55 AM,75.2,65.3,71,29.85,10.0,SSE,4.6,-,N/A,,Clear,160,2013-07-07 11:55:00
7:15 AM,76.1,65.7,70,29.85,10.0,South,4.6,-,N/A,,Scattered Clouds,170,2013-07-07 12:15:00
7:35 AM,76.1,65.8,70,29.86,10.0,South,3.5,-,N/A,,Overcast,170,2013-07-07 12:35:00
7:55 AM,76.1,66.2,71,29.86,10.0,South,4.6,-,N/A,,Overcast,170,2013-07-07 12:55:00
8:15 AM,76.5,66.4,71,29.86,10.0,South,4.6,-,N/A,,Mostly Cloudy,180,2013-07-07 13:15:00
8:35 AM,77.5,66.7,69,29.86,10.0,SSW,5.8,-,N/A,,Scattered Clouds,210,2013-07-07 13:35:00
8:55 AM,78.3,66.4,67,29.86,10.0,SSW,5.8,-,N/A,,Scattered Clouds,210,2013-07-07 13:55:00
9:15 AM,79.0,66.6,66,29.86,10.0,SSW,6.9,-,N/A,,Mostly Cloudy,210,2013-07-07 14:15:00
9:35 AM,80.6,66.6,62,29.86,10.0,SSW,6.9,-,N/A,,Scattered Clouds,200,2013-07-07 14:35:00
9:55 AM,80.6,66.6,62,29.86,10.0,SW,6.9,-,N/A,,Scattered Clouds,220,2013-07-07 14:55:00
10:15 AM,82.4,67.3,60,29.86,10.0,SW,5.8,-,N/A,,Clear,220,2013-07-07 15:15:00
10:35 AM,81.7,67.3,61,29.86,10.0,SSW,6.9,-,N/A,,Clear,200,2013-07-07 15:35:00
10:55 AM,80.4,67.1,64,29.87,10.0,SW,3.5,-,N/A,,Clear,230,2013-07-07 15:55:00
11:15 AM,83.3,68.0,60,29.87,10.0,SSW,3.5,-,N/A,,Scattered Clouds,200,2013-07-07 16:15:00
11:35 AM,83.5,67.8,59,29.87,10.0,SSW,8.1,-,N/A,,Scattered Clouds,200,2013-07-07 16:35:00
11:55 AM,82.6,67.1,59,29.87,10.0,SSW,5.8,-,N/A,,Mostly Cloudy,210,2013-07-07 16:55:00
12:15 PM,84.4,68.4,58,29.87,10.0,South,8.1,-,N/A,,Scattered Clouds,180,2013-07-07 17:15:00
12:35 PM,84.4,68.2,58,29.86,10.0,South,5.8,-,N/A,,Clear,190,2013-07-07 17:35:00
12:55 PM,85.3,68.0,56,29.87,10.0,South,5.8,-,N/A,,Clear,190,2013-07-07 17:55:00
1:15 PM,86.2,68.2,55,29.87,10.0,SSE,5.8,-,N/A,,Scattered Clouds,150,2013-07-07 18:15:00
1:35 PM,87.1,68.9,55,29.87,10.0,South,5.8,-,N/A,,Scattered Clouds,180,2013-07-07 18:35:00
1:55 PM,87.6,68.4,53,29.87,10.0,South,8.1,-,N/A,,Scattered Clouds,190,2013-07-07 18:55:00
2:15 PM,87.8,68.7,53,29.87,10.0,South,6.9,-,N/A,,Scattered Clouds,190,2013-07-07 19:15:00
2:35 PM,87.6,68.4,53,29.87,10.0,SW,4.6,-,N/A,,Mostly Cloudy,230,2013-07-07 19:35:00
2:55 PM,85.3,68.5,57,29.87,10.0,South,5.8,-,N/A,,Overcast,180,2013-07-07 19:55:00
3:15 PM,85.3,68.5,57,29.87,10.0,SSW,4.6,-,N/A,,Scattered Clouds,200,2013-07-07 20:15:00
3:35 PM,85.1,68.7,58,29.85,10.0,South,6.9,-,N/A,,Scattered Clouds,170,2013-07-07 20:35:00
3:55 PM,84.4,69.8,61,29.86,10.0,Calm,Calm,-,N/A,,Scattered Clouds,0,2013-07-07 20:55:00
4:15 PM,83.8,70.0,63,29.86,10.0,Calm,Calm,-,N/A,,Mostly Cloudy,0,2013-07-07 21:15:00
4:35 PM,83.3,70.2,64,29.86,10.0,Calm,Calm,-,N/A,,Scattered Clouds,0,2013-07-07 21:35:00
4:55 PM,83.3,70.7,66,29.86,10.0,Calm,Calm,-,N/A,,Clear,0,2013-07-07 21:55:00
5:15 PM,83.1,71.4,68,29.85,10.0,Calm,Calm,-,N/A,,Mostly Cloudy,0,2013-07-07 22:15:00
5:35 PM,82.6,70.9,68,29.86,10.0,Calm,Calm,-,N/A,,Overcast,0,2013-07-07 22:35:00
5:55 PM,82.8,70.5,66,29.85,10.0,Calm,Calm,-,N/A,,Mostly Cloudy,0,2013-07-07 22:55:00
6:15 PM,80.8,72.5,76,29.85,10.0,NE,6.9,-,N/A,,Mostly Cloudy,40,2013-07-07 23:15:00
6:35 PM,79.7,72.0,77,29.86,10.0,ENE,4.6,-,N/A,,Mostly Cloudy,60,2013-07-07 23:35:00
6:55 PM,78.6,71.6,79,29.87,10.0,North,8.1,-,N/A,,Scattered Clouds,10,2013-07-07 23:55:00
7:15 PM,77.0,70.2,79,29.88,10.0,North,6.9,-,N/A,Rain,Light Rain,10,2013-07-08 00:15:00
7:35 PM,74.7,69.6,84,29.88,5.0,NE,6.9,-,0.04,Rain,Heavy Rain,40,2013-07-08 00:35:00
7:55 PM,72.5,68.4,87,29.90,10.0,NNE,5.8,-,0.05,Rain,Light Rain,30,2013-07-08 00:55:00
8:15 PM,71.2,67.5,88,29.93,10.0,NW,9.2,-,N/A,,Scattered Clouds,320,2013-07-08 01:15:00
8:35 PM,69.4,65.5,87,29.93,10.0,NNW,6.9,-,N/A,,Scattered Clouds,330,2013-07-08 01:35:00
8:55 PM,68.9,65.8,90,29.91,7.0,NE,3.5,-,0.02,Rain,Heavy Rain,40,2013-07-08 01:55:00
9:15 PM,68.0,65.8,93,29.89,7.0,ENE,5.8,-,0.03,Rain,Rain,70,2013-07-08 02:15:00
9:35 PM,67.1,64.9,93,29.86,10.0,NE,11.5,-,0.04,Rain,Light Rain,50,2013-07-08 02:35:00
9:55 PM,65.3,63.5,94,29.90,10.0,North,5.8,-,0.04,,Clear,360,2013-07-08 02:55:00
10:15 PM,65.5,63.7,94,29.91,10.0,South,3.5,-,N/A,,Scattered Clouds,180,2013-07-08 03:15:00
10:35 PM,64.8,63.3,95,29.92,10.0,NNE,8.1,-,N/A,,Clear,30,2013-07-08 03:35:00
10:55 PM,63.1,61.5,94,29.92,10.0,NE,8.1,-,N/A,,Scattered Clouds,40,2013-07-08 03:55:00
11:15 PM,62.2,60.8,95,29.91,10.0,North,4.6,-,N/A,,Scattered Clouds,10,2013-07-08 04:15:00
11:35 PM,62.2,61.0,96,29.93,10.0,Calm,Calm,-,N/A,,Clear,0,2013-07-08 04:35:00
11:55 PM,61.9,60.8,96,29.94,10.0,Calm,Calm,-,N/A,,Clear,0,2013-07-08 04:55:00